User: anonymous   Login
Location: Rometta
(44.2000°N, 10.0500°E)
Time: 08:46:25
(UTC+00:00)
Language:

Cosmos 2142 Rocket - Orbit

View from above orbital plane
View from above orbital plane
View from above satellite
View from above satellite

Ground track
Ground track

The orbit data is extracted from the following two-line orbital elements,

1 21231U 91029B   21104.56214873  .00000045  00000-0  30807-4 0  9995
2 21231  82.9518 153.5199 0033841 286.3135 181.3818 13.75831451505664
Epoch (UTC): 14 April 2021 13:29:29
Eccentricity: 0.0033841
inclination: 82.9518°
perigee height: 954 km
apogee height: 1003 km
right ascension of ascending node: 153.5199°
argument of perigee: 286.3135°
revolutions per day: 13.75831451
mean anomaly at epoch: 181.3818°
orbit number at epoch: 50566

The dashed part of the orbit path shows where the satellite is in the earth's shadow,  

DLR